Вернуться в каталог

DELTA 2 R/B(1)

АктивенLEO
NORAD 27665·ROCKET BODY·🇺🇸 United States

Запущен Jan 29, 2003 с Cape Canaveral Space Force Station

Loading…

Ближайшие Пролёты (ближайшие 24 часа)

TLE

СвежийSource: Space-Track

Эпоха: Sep 14, 2026, 03:14 UTC

1 27665U 03005C   26257.13497516  .00000090  00000-0  67600-4 0  9994
2 27665  39.5746 191.1198 0009356 260.6124 116.1941 14.29576459233762

Отслеживайте DELTA 2 R/B(1) в реальном времени с AllMySat

Download on the App Store